Location: St. Louis
(38.6270°N, 90.1994°W)
Time: 02:14:24
(UTC-06:00)

Transit 2A - Pass Details

Date: 08 December 2021
Orbit: 591 x 966 km, 66.7° (Epoch: 24 January)

Event Time Altitude Azimuth Distance (km) Brightness Sun altitude
Rises 00:27:36 0° 255° (WSW) 3,354 - -72.5°
Reaches altitude 10° 00:30:43 10° 273° (W) 2,494 - -72.2°
Maximum altitude 00:34:46 19° 317° (NW) 2,009 - -71.8°
Drops below altitude 10° 00:39:01 10° 1° (N) 2,645 - -71.3°
Sets 00:42:28 0° 19° (NNE) 3,631 - -70.9°
